• In Deutschland
  • Länderverzeichnis
  • Für 7 Tage
  • Wassertemperatur
  • Satellitenkarten
  • Wetterkarte
  • Widgets
  • user-avatar
    Anmelden

    Stündliche Wetter Mayrhofen

    Heute, 21 Oktober, Sonntag

    Zeit Temperatur Niederschläge Wind Luftdruck Luftfeuchtigkeit
    00:00 +4°C° 0 mm 1 m/S 622 mmHg 89%
    01:00 +3°C° 0 mm 1 m/S 621 mmHg 87%
    02:00 +2°C° 0 mm 2 m/S 621 mmHg 85%
    03:00 +2°C° 0 mm 2 m/S 621 mmHg 84%
    04:00 +2°C° 0 mm 2 m/S 621 mmHg 83%
    05:00 +2°C° 0 mm 2 m/S 621 mmHg 81%
    06:00 +2°C° 0 mm 2 m/S 621 mmHg 80%
    07:00 +2°C° 0 mm 3 m/S 621 mmHg 84%
    08:00 +3°C° 0 mm 3 m/S 621 mmHg 78%
    09:00 +4°C° 0 mm 3 m/S 621 mmHg 73%
    10:00 +5°C° 0 mm 3 m/S 622 mmHg 68%
    11:00 +5°C° 0 mm 3 m/S 622 mmHg 62%
    12:00 +7°C° 0 mm 3 m/S 622 mmHg 57%
    13:00 +8°C° 0 mm 3 m/S 622 mmHg 51%
    14:00 +7°C° 0 mm 3 m/S 622 mmHg 54%
    15:00 +5°C° 0 mm 3 m/S 621 mmHg 56%
    16:00 +4°C° 0 mm 3 m/S 621 mmHg 58%
    17:00 +3°C° 0 mm 2 m/S 621 mmHg 68%
    18:00 +1°C° 0 mm 2 m/S 620 mmHg 78%
    19:00 0°C° 0 mm 1 m/S 620 mmHg 89%
    20:00 0°C° 0 mm 1 m/S 620 mmHg 86%
    21:00 0°C° 0 mm 1 m/S 620 mmHg 84%
    22:00 -1°C° 0 mm 1 m/S 620 mmHg 82%
    23:00 -1°C° 0 mm 1 m/S 620 mmHg 76%

    Morgen, 22 Oktober, Montag

    Zeit Temperatur Niederschläge Wind Luftdruck Luftfeuchtigkeit
    00:00 -1°C° 0 mm 1 m/S 620 mmHg 71%
    01:00 -1°C° 0 mm 1 m/S 620 mmHg 66%
    02:00 -1°C° 0 mm 1 m/S 619 mmHg 64%
    03:00 -1°C° 0 mm 1 m/S 619 mmHg 62%
    04:00 -1°C° 0 mm 1 m/S 619 mmHg 60%
    05:00 0°C° 0 mm 1 m/S 619 mmHg 59%
    06:00 0°C° 0 mm 1 m/S 619 mmHg 58%
    07:00 0°C° 0 mm 1 m/S 619 mmHg 56%
    08:00 +3°C° 0 mm 1 m/S 620 mmHg 49%
    09:00 +5°C° 0 mm 1 m/S 621 mmHg 43%
    10:00 +7°C° 0 mm 2 m/S 622 mmHg 36%
    11:00 +8°C° 0 mm 2 m/S 623 mmHg 37%
    12:00 +9°C° 0 mm 2 m/S 623 mmHg 38%
    13:00 +9°C° 0 mm 3 m/S 623 mmHg 39%
    14:00 +8°C° 0 mm 2 m/S 622 mmHg 46%
    15:00 +7°C° 0 mm 2 m/S 622 mmHg 52%
    16:00 +6°C° 0 mm 2 m/S 621 mmHg 59%
    17:00 +4°C° 0 mm 2 m/S 621 mmHg 69%
    18:00 +2°C° 0 mm 2 m/S 621 mmHg 79%
    19:00 -1°C° 0 mm 2 m/S 621 mmHg 90%
    20:00 -1°C° 0 mm 2 m/S 621 mmHg 90%
    21:00 -1°C° 0 mm 2 m/S 622 mmHg 91%
    22:00 -1°C° 0 mm 2 m/S 622 mmHg 92%
    23:00 -1°C° 0 mm 2 m/S 622 mmHg 92%

    übermorgen, 23 Oktober, Dienstag

    Zeit Temperatur Niederschläge Wind Luftdruck Luftfeuchtigkeit
    00:00 -1°C° 0 mm 2 m/S 622 mmHg 91%
    01:00 -1°C° 0 mm 2 m/S 622 mmHg 90%
    02:00 -1°C° 0 mm 2 m/S 622 mmHg 87%
    03:00 -1°C° 0 mm 2 m/S 622 mmHg 83%
    04:00 -2°C° 0 mm 2 m/S 622 mmHg 80%
    05:00 -2°C° 0 mm 2 m/S 622 mmHg 80%
    06:00 -2°C° 0 mm 2 m/S 622 mmHg 80%
    07:00 -2°C° 0 mm 2 m/S 622 mmHg 81%
    08:00 +2°C° 0 mm 2 m/S 622 mmHg 73%
    09:00 +4°C° 0 mm 2 m/S 623 mmHg 64%
    10:00 +6°C° 0 mm 2 m/S 624 mmHg 56%
    11:00 +7°C° 0 mm 2 m/S 623 mmHg 51%
    12:00 +8°C° 0 mm 2 m/S 623 mmHg 47%
    13:00 +9°C° 0 mm 2 m/S 623 mmHg 42%
    14:00 +8°C° 0 mm 2 m/S 623 mmHg 46%
    15:00 +8°C° 0 mm 2 m/S 622 mmHg 51%
    16:00 +7°C° 0 mm 2 m/S 622 mmHg 55%
    17:00 +5°C° 0 mm 2 m/S 621 mmHg 62%
    18:00 +4°C° 0 mm 2 m/S 621 mmHg 69%
    19:00 +2°C° 0 mm 2 m/S 620 mmHg 77%
    20:00 +2°C° 0 mm 2 m/S 620 mmHg 75%
    21:00 +2°C° 0 mm 2 m/S 621 mmHg 72%
    22:00 +3°C° 0 mm 2 m/S 621 mmHg 70%
    23:00 +2°C° 0 mm 2 m/S 620 mmHg 70%

    24 Oktober, Mittwoch

    Zeit Temperatur Niederschläge Wind Luftdruck Luftfeuchtigkeit
    00:00 +2°C° 0 mm 2 m/S 620 mmHg 69%
    01:00 +2°C° 0 mm 2 m/S 620 mmHg 69%
    02:00 +1°C° 0.1 mm 3 m/S 619 mmHg 69%
    03:00 +1°C° 0.1 mm 3 m/S 619 mmHg 69%
    04:00 +1°C° 0.1 mm 3 m/S 619 mmHg 69%
    05:00 +1°C° 0.3 mm 3 m/S 619 mmHg 74%
    06:00 +1°C° 0.3 mm 3 m/S 619 mmHg 78%
    07:00 +1°C° 0.3 mm 3 m/S 619 mmHg 83%
    08:00 +2°C° 0.7 mm 3 m/S 619 mmHg 83%
    09:00 +3°C° 0.7 mm 3 m/S 619 mmHg 84%
    10:00 +4°C° 0.7 mm 3 m/S 619 mmHg 84%
    11:00 +4°C° 0.8 mm 3 m/S 619 mmHg 83%
    12:00 +5°C° 0.8 mm 3 m/S 619 mmHg 82%
    13:00 +5°C° 0.8 mm 4 m/S 619 mmHg 81%
    14:00 +5°C° 1 mm 3 m/S 619 mmHg 83%
    15:00 +5°C° 1 mm 3 m/S 619 mmHg 85%
    16:00 +4°C° 1 mm 3 m/S 619 mmHg 87%
    17:00 +4°C° 0.6 mm 3 m/S 619 mmHg 89%
    18:00 +3°C° 0.6 mm 3 m/S 619 mmHg 91%
    19:00 +3°C° 0.6 mm 3 m/S 619 mmHg 93%
    20:00 +3°C° 0.3 mm 3 m/S 619 mmHg 94%
    21:00 +3°C° 0.3 mm 3 m/S 620 mmHg 94%
    22:00 +3°C° 0.3 mm 3 m/S 620 mmHg 95%
    23:00 +3°C° 0.1 mm 2 m/S 620 mmHg 95%

    25 Oktober, Donnerstag

    Zeit Temperatur Niederschläge Wind Luftdruck Luftfeuchtigkeit
    00:00 +3°C° 0.1 mm 2 m/S 620 mmHg 95%
    01:00 +3°C° 0.1 mm 2 m/S 620 mmHg 95%
    02:00 +3°C° 0 mm 2 m/S 619 mmHg 95%
    03:00 +2°C° 0 mm 2 m/S 619 mmHg 95%
    04:00 +2°C° 0 mm 2 m/S 619 mmHg 95%
    05:00 +1°C° 0 mm 2 m/S 619 mmHg 94%
    06:00 +1°C° 0 mm 2 m/S 619 mmHg 93%
    07:00 +1°C° 0 mm 2 m/S 619 mmHg 92%
    08:00 +4°C° 0 mm 1 m/S 619 mmHg 81%
    09:00 +6°C° 0 mm 1 m/S 620 mmHg 70%
    10:00 +9°C° 0 mm 1 m/S 621 mmHg 60%
    11:00 +10°C° 0 mm 1 m/S 621 mmHg 54%
    12:00 +11°C° 0 mm 1 m/S 621 mmHg 48%
    13:00 +12°C° 0 mm 1 m/S 621 mmHg 43%
    14:00 +11°C° 0 mm 1 m/S 620 mmHg 49%
    15:00 +10°C° 0 mm 1 m/S 620 mmHg 55%
    16:00 +10°C° 0 mm 1 m/S 619 mmHg 61%
    17:00 +7°C° 0 mm 1 m/S 618 mmHg 68%
    18:00 +5°C° 0 mm 1 m/S 617 mmHg 75%
    19:00 +3°C° 0 mm 1 m/S 616 mmHg 81%
    20:00 +3°C° 0 mm 1 m/S 616 mmHg 80%
    21:00 +3°C° 0 mm 1 m/S 616 mmHg 78%
    22:00 +2°C° 0 mm 1 m/S 616 mmHg 77%
    23:00 +2°C° 0 mm 1 m/S 616 mmHg 73%

    26 Oktober, Freitag

    Zeit Temperatur Niederschläge Wind Luftdruck Luftfeuchtigkeit
    00:00 +2°C° 0 mm 1 m/S 616 mmHg 69%
    01:00 +2°C° 0 mm 1 m/S 615 mmHg 66%
    02:00 +2°C° 0 mm 1 m/S 615 mmHg 63%
    03:00 +1°C° 0 mm 2 m/S 615 mmHg 60%
    04:00 +1°C° 0 mm 2 m/S 614 mmHg 57%
    05:00 +1°C° 0 mm 2 m/S 614 mmHg 58%
    06:00 +1°C° 0 mm 2 m/S 614 mmHg 59%
    07:00 +1°C° 0 mm 2 m/S 614 mmHg 59%
    08:00 +4°C° 0 mm 2 m/S 614 mmHg 55%
    09:00 +6°C° 0 mm 2 m/S 615 mmHg 51%
    10:00 +9°C° 0 mm 2 m/S 616 mmHg 48%
    11:00 +10°C° 0 mm 2 m/S 616 mmHg 46%
    12:00 +12°C° 0 mm 2 m/S 616 mmHg 44%
    13:00 +13°C° 0 mm 2 m/S 615 mmHg 42%
    14:00 +12°C° 0 mm 2 m/S 615 mmHg 50%
    15:00 +10°C° 0 mm 2 m/S 614 mmHg 58%
    16:00 +9°C° 0 mm 2 m/S 614 mmHg 66%
    17:00 +7°C° 0 mm 2 m/S 613 mmHg 73%
    18:00 +6°C° 0 mm 2 m/S 613 mmHg 81%
    19:00 +4°C° 0 mm 2 m/S 612 mmHg 88%
    20:00 +4°C° 0 mm 2 m/S 612 mmHg 88%
    21:00 +4°C° 0 mm 2 m/S 612 mmHg 89%
    22:00 +4°C° 0 mm 2 m/S 612 mmHg 89%
    23:00 +4°C° 0 mm 2 m/S 611 mmHg 90%
    Mehr zeigen